| time (UTC) | temp F | wind direction | speed knots | gust knots | rain 1hr in | rain 24hr in | rain mn in | humidity % | barometer mb |
| 20260506081011 | 52 | 62 | 0.0 | 0.0 | 0.00 | 0.00 | 0.00 | 92 | 1016.5 |
| 20260506080511 | 52 | 62 | 0.0 | 0.0 | 0.00 | 0.00 | 0.00 | 92 | 1016.5 |
| 20260506080104 | 52 | 62 | 0.0 | 0.0 | 0.00 | 0.00 | 0.00 | 92 | 1017.0 |
| 20260506073510 | 53 | 62 | 0.0 | 0.0 | 0.00 | 0.00 | 0.00 | 90 | 1016.2 |
| 20260506073050 | 53 | 68 | 0.0 | 0.0 | 0.00 | 0.00 | 0.00 | 90 | 1016.8 |
| 20260506073022 | 53 | 68 | 0.0 | 0.0 | 0.00 | 0.00 | 0.00 | 90 | 1016.2 |
| 20260506072512 | 54 | 68 | 0.0 | 0.9 | 0.00 | 0.00 | 0.00 | 90 | 1016.3 |
| 20260506072010 | 54 | 70 | 0.0 | 0.9 | 0.00 | 0.00 | 0.00 | 90 | 1016.2 |
| 20260506071547 | 54 | 60 | 0.0 | 0.0 | 0.00 | 0.00 | 0.00 | 90 | 1016.7 |
| 20260506071526 | 54 | 60 | 0.0 | 0.0 | 0.00 | 0.00 | 0.00 | 89 | 1016.2 |
| 20260506071009 | 54 | 60 | 0.0 | 0.0 | 0.00 | 0.00 | 0.00 | 89 | 1016.2 |
| 20260506070509 | 54 | 60 | 0.0 | 0.0 | 0.00 | 0.00 | 0.00 | 89 | 1016.2 |
| 20260506062507 | 56 | 60 | 0.0 | 0.9 | 0.00 | 0.00 | 0.00 | 85 | 1015.9 |
| 20260506062012 | 56 | 60 | 0.0 | 0.9 | 0.00 | 0.00 | 0.00 | 85 | 1015.8 |
| 20260506061541 | 56 | 60 | 0.0 | 0.9 | 0.00 | 0.00 | 0.00 | 85 | 1016.4 |
| 20260506061533 | 56 | 60 | 0.0 | 0.9 | 0.00 | 0.00 | 0.00 | 84 | 1015.8 |
| 20260506061014 | 56 | 60 | 0.0 | 0.9 | 0.00 | 0.00 | 0.00 | 85 | 1015.8 |
| 20260506060510 | 56 | 60 | 0.0 | 0.9 | 0.00 | 0.00 | 0.00 | 84 | 1015.7 |
| 20260506051003 | 58 | 156 | 0.0 | 3.5 | 0.00 | 0.00 | 0.00 | 82 | 1015.4 |
| 20260506050504 | 58 | 157 | 0.0 | 2.6 | 0.00 | 0.00 | 0.00 | 81 | 1015.3 |
| 20260506045003 | 59 | 148 | 0.0 | 1.7 | 0.00 | 0.00 | 0.00 | 81 | 1015.3 |
| 20260506044538 | 59 | 182 | 0.0 | 1.7 | 0.00 | 0.00 | 0.00 | 81 | 1015.8 |
| 20260506044512 | 59 | 131 | 0.0 | 1.7 | 0.00 | 0.00 | 0.00 | 80 | 1015.3 |
| 20260506044008 | 59 | 146 | 0.0 | 0.9 | 0.00 | 0.00 | 0.00 | 80 | 1015.2 |
| 20260506043505 | 59 | 136 | 0.0 | 3.5 | 0.00 | 0.00 | 0.00 | 80 | 1015.2 |
| 20260506043047 | 59 | 138 | 0.0 | 3.5 | 0.00 | 0.00 | 0.00 | 80 | 1015.6 |
| 20260506043014 | 59 | 138 | 0.9 | 3.5 | 0.00 | 0.00 | 0.00 | 80 | 1015.1 |
| 20260506042506 | 59 | 132 | 0.0 | 0.9 | 0.00 | 0.00 | 0.00 | 80 | 1015.1 |
| 20260506042008 | 59 | 132 | 0.0 | 0.0 | 0.00 | 0.00 | 0.00 | 79 | 1015.1 |
| 20260506041538 | 60 | 132 | 0.0 | 0.0 | 0.00 | 0.00 | 0.00 | 79 | 1015.5 |
| 20260506041518 | 60 | 132 | 0.0 | 0.0 | 0.00 | 0.00 | 0.00 | 78 | 1015.1 |
| 20260506041007 | 60 | 132 | 0.0 | 0.9 | 0.00 | 0.00 | 0.00 | 78 | 1015.0 |
| 20260506040508 | 60 | 132 | 0.0 | 1.7 | 0.00 | 0.00 | 0.00 | 77 | 1014.9 |
| 20260506040046 | 60 | 145 | 0.0 | 1.7 | 0.00 | 0.00 | 0.00 | 77 | 1015.3 |
| 20260506035504 | 61 | 137 | 0.0 | 0.9 | 0.00 | 0.00 | 0.00 | 76 | 1014.7 |
| 20260506035006 | 61 | 160 | 0.0 | 0.0 | 0.00 | 0.00 | 0.00 | 75 | 1014.5 |
| 20260506034535 | 62 | 148 | 0.0 | 0.0 | 0.00 | 0.00 | 0.00 | 75 | 1015.1 |
| 20260506034003 | 62 | 195 | 0.0 | 0.0 | 0.00 | 0.00 | 0.00 | 73 | 1014.4 |
| 20260506033505 | 62 | 195 | 0.0 | 1.7 | 0.00 | 0.00 | 0.00 | 73 | 1014.4 |
| 20260506033034 | 63 | 195 | 0.0 | 2.6 | 0.00 | 0.00 | 0.00 | 73 | 1014.9 |
| 20260506032506 | 63 | 247 | 0.0 | 2.6 | 0.00 | 0.00 | 0.00 | 71 | 1014.3 |
| 20260506032007 | 64 | 284 | 0.0 | 0.9 | 0.00 | 0.00 | 0.00 | 69 | 1014.2 |
| 20260506031534 | 65 | 271 | 0.0 | 0.9 | 0.00 | 0.00 | 0.00 | 68 | 1014.7 |
| 20260506031510 | 65 | 271 | 0.0 | 0.0 | 0.00 | 0.00 | 0.00 | 68 | 1014.2 |
| 20260506031007 | 66 | 271 | 0.0 | 1.7 | 0.00 | 0.00 | 0.00 | 67 | 1014.2 |
| 20260506030505 | 66 | 271 | 0.0 | 1.7 | 0.00 | 0.00 | 0.00 | 66 | 1014.1 |
| 20260506030034 | 67 | 220 | 0.0 | 1.7 | 0.00 | 0.00 | 0.00 | 66 | 1014.6 |
| 20260506030017 | 67 | 220 | 0.0 | 1.7 | 0.00 | 0.00 | 0.00 | 65 | 1014.1 |
| 20260506025509 | 67 | 259 | 0.0 | 0.9 | 0.00 | 0.00 | 0.00 | 66 | 1014.1 |
| 20260506025009 | 67 | 209 | 0.0 | 2.6 | 0.00 | 0.00 | 0.00 | 66 | 1014.1 |
| 20260506024540 | 67 | 304 | 0.0 | 2.6 | 0.00 | 0.00 | 0.00 | 65 | 1014.6 |
| 20260506024536 | 67 | 304 | 0.0 | 2.6 | 0.00 | 0.00 | 0.00 | 65 | 1014.1 |
| 20260506023505 | 69 | 269 | 0.0 | 0.9 | 0.00 | 0.00 | 0.00 | 64 | 1014.0 |
| 20260506023030 | 69 | 234 | 0.0 | 0.9 | 0.00 | 0.00 | 0.00 | 65 | 1014.5 |
| 20260506022503 | 69 | 283 | 0.0 | 2.6 | 0.00 | 0.00 | 0.00 | 65 | 1014.0 |
| 20260506022003 | 68 | 282 | 0.0 | 2.6 | 0.00 | 0.00 | 0.00 | 66 | 1014.0 |
| 20260506021545 | 68 | 285 | 0.0 | 1.7 | 0.00 | 0.00 | 0.00 | 66 | 1014.5 |
| 20260506021511 | 68 | 174 | 0.0 | 1.7 | 0.00 | 0.00 | 0.00 | 66 | 1014.0 |
| 20260506021006 | 68 | 269 | 0.0 | 3.5 | 0.00 | 0.00 | 0.00 | 66 | 1014.0 |
| 20260506020506 | 67 | 269 | 0.0 | 3.5 | 0.00 | 0.00 | 0.00 | 67 | 1014.0 |
| 20260506020029 | 67 | 290 | 1.7 | 3.5 | 0.00 | 0.00 | 0.00 | 67 | 1014.5 |
| 20260506020016 | 67 | 292 | 1.7 | 3.5 | 0.00 | 0.00 | 0.00 | 66 | 1014.1 |
| 20260506015508 | 68 | 214 | 0.0 | 4.3 | 0.00 | 0.00 | 0.00 | 66 | 1014.0 |
| 20260506015011 | 67 | 256 | 0.0 | 5.2 | 0.00 | 0.00 | 0.00 | 67 | 1014.0 |
| 20260506014529 | 67 | 266 | 2.6 | 5.2 | 0.00 | 0.00 | 0.00 | 66 | 1014.5 |
| 20260506014522 | 67 | 281 | 2.6 | 5.2 | 0.00 | 0.00 | 0.00 | 66 | 1014.0 |
| 20260506014009 | 68 | 265 | 0.9 | 5.2 | 0.00 | 0.00 | 0.00 | 66 | 1014.0 |
| 20260506013509 | 68 | 271 | 2.6 | 5.2 | 0.00 | 0.00 | 0.00 | 65 | 1014.0 |
| 20260506013028 | 68 | 281 | 1.7 | 4.3 | 0.00 | 0.00 | 0.00 | 65 | 1014.5 |
| 20260506012504 | 69 | 209 | 0.9 | 6.1 | 0.00 | 0.00 | 0.00 | 64 | 1014.0 |
| 20260506012005 | 70 | 271 | 0.0 | 5.2 | 0.00 | 0.00 | 0.00 | 63 | 1014.0 |
| 20260506011530 | 70 | 311 | 0.9 | 4.3 | 0.00 | 0.00 | 0.00 | 63 | 1014.5 |
| 20260506011515 | 70 | 281 | 0.9 | 4.3 | 0.00 | 0.00 | 0.00 | 61 | 1014.0 |
| 20260506011003 | 70 | 257 | 1.7 | 4.3 | 0.00 | 0.00 | 0.00 | 62 | 1014.0 |
| 20260506010511 | 71 | 281 | 0.9 | 4.3 | 0.00 | 0.00 | 0.00 | 63 | 1014.0 |
| 20260506010031 | 70 | 217 | 1.7 | 6.1 | 0.00 | 0.00 | 0.00 | 63 | 1014.4 |
| 20260506005507 | 70 | 205 | 0.9 | 6.1 | 0.00 | 0.00 | 0.00 | 62 | 1014.0 |
| 20260506005008 | 70 | 165 | 1.7 | 6.1 | 0.00 | 0.00 | 0.00 | 62 | 1014.0 |
| 20260506004527 | 71 | 201 | 0.9 | 6.1 | 0.00 | 0.00 | 0.00 | 61 | 1014.4 |
| 20260506004520 | 71 | 183 | 1.7 | 6.1 | 0.00 | 0.00 | 0.00 | 61 | 1013.9 |
| 20260506004010 | 71 | 193 | 0.9 | 5.2 | 0.00 | 0.00 | 0.00 | 60 | 1013.9 |
| 20260506003026 | 71 | 230 | 1.7 | 4.3 | 0.00 | 0.00 | 0.00 | 61 | 1014.4 |
| 20260506002514 | 71 | 182 | 1.7 | 5.2 | 0.00 | 0.00 | 0.00 | 61 | 1014.0 |
| 20260506002013 | 70 | 203 | 2.6 | 6.1 | 0.00 | 0.00 | 0.00 | 60 | 1014.0 |
| 20260506001525 | 70 | 223 | 1.7 | 6.1 | 0.00 | 0.00 | 0.00 | 61 | 1014.5 |
| 20260506001010 | 71 | 158 | 1.7 | 5.2 | 0.00 | 0.00 | 0.00 | 61 | 1014.1 |
| 20260506000025 | 71 | 286 | 1.7 | 6.1 | 0.00 | 0.00 | 0.00 | 61 | 1014.7 |
| 20260506000010 | 71 | 216 | 1.7 | 7.0 | 0.00 | 0.00 | 0.00 | 62 | 1014.2 |
| 20260505235008 | 71 | 200 | 2.6 | 6.1 | 0.00 | 0.00 | 0.00 | 61 | 1014.3 |
| 20260505234524 | 71 | 158 | 0.9 | 6.1 | 0.00 | 0.00 | 0.00 | 62 | 1014.7 |
| 20260505234008 | 71 | 151 | 1.7 | 5.2 | 0.00 | 0.00 | 0.00 | 61 | 1014.4 |
| 20260505233508 | 70 | 203 | 1.7 | 5.2 | 0.00 | 0.00 | 0.00 | 62 | 1014.3 |
| 20260505233023 | 70 | 210 | 1.7 | 5.2 | 0.00 | 0.00 | 0.00 | 62 | 1014.8 |
| 20260505232512 | 71 | 171 | 1.7 | 6.1 | 0.00 | 0.00 | 0.00 | 61 | 1014.4 |
| 20260505232009 | 70 | 180 | 1.7 | 7.0 | 0.00 | 0.00 | 0.00 | 61 | 1014.4 |
| 20260505231527 | 70 | 225 | 1.7 | 7.0 | 0.00 | 0.00 | 0.00 | 62 | 1015.0 |
| 20260505230510 | 70 | 143 | 1.7 | 6.1 | 0.00 | 0.00 | 0.00 | 63 | 1014.7 |
| 20260505230048 | 70 | 153 | 1.7 | 6.1 | 0.00 | 0.00 | 0.00 | 62 | 1014.7 |
| 20260505230024 | 70 | 218 | 1.7 | 6.1 | 0.00 | 0.00 | 0.00 | 63 | 1015.1 |
| 20260505225515 | 70 | 292 | 1.7 | 7.0 | 0.00 | 0.00 | 0.00 | 62 | 1014.8 |
| 20260505225007 | 70 | 203 | 1.7 | 9.6 | 0.00 | 0.00 | 0.00 | 63 | 1014.8 |
| 20260505224528 | 71 | 196 | 3.5 | 9.6 | 0.00 | 0.00 | 0.00 | 62 | 1015.3 |
| 20260505224008 | 70 | 195 | 0.9 | 7.8 | 0.00 | 0.00 | 0.00 | 64 | 1014.9 |
| 20260505223511 | 70 | 192 | 4.3 | 7.8 | 0.00 | 0.00 | 0.00 | 62 | 1014.8 |
| 20260505223020 | 70 | 163 | 2.6 | 7.8 | 0.00 | 0.00 | 0.00 | 62 | 1015.3 |
| 20260505222512 | 71 | 226 | 2.6 | 7.8 | 0.00 | 0.00 | 0.00 | 62 | 1014.9 |
| 20260505221520 | 70 | 195 | 1.7 | 6.1 | 0.00 | 0.00 | 0.00 | 64 | 1015.3 |
| 20260505221011 | 70 | 281 | 2.6 | 5.2 | 0.00 | 0.00 | 0.00 | 63 | 1014.8 |
| 20260505220018 | 69 | 228 | 0.9 | 7.0 | 0.00 | 0.00 | 0.00 | 66 | 1015.4 |
| 20260505215509 | 69 | 229 | 0.9 | 7.8 | 0.00 | 0.00 | 0.00 | 64 | 1015.0 |
| 20260505215012 | 69 | 283 | 3.5 | 7.8 | 0.00 | 0.00 | 0.00 | 65 | 1015.0 |
| 20260505214529 | 69 | 209 | 2.6 | 7.0 | 0.00 | 0.00 | 0.00 | 64 | 1015.0 |
| 20260505214517 | 69 | 209 | 1.7 | 7.0 | 0.00 | 0.00 | 0.00 | 65 | 1015.4 |
| 20260505214013 | 68 | 289 | 1.7 | 7.8 | 0.00 | 0.00 | 0.00 | 66 | 1015.0 |
| 20260505213509 | 68 | 286 | 5.2 | 7.8 | 0.00 | 0.00 | 0.00 | 65 | 1015.1 |
| 20260505213019 | 69 | 250 | 2.6 | 7.0 | 0.00 | 0.00 | 0.00 | 66 | 1015.6 |
| 20260505212508 | 69 | 231 | 1.7 | 7.0 | 0.00 | 0.00 | 0.00 | 64 | 1015.1 |
| 20260505211533 | 70 | 298 | 1.7 | 4.3 | 0.00 | 0.00 | 0.00 | 64 | 1015.6 |
| 20260505211526 | 70 | 236 | 2.6 | 4.3 | 0.00 | 0.00 | 0.00 | 63 | 1015.1 |
| 20260505210029 | 69 | 213 | 1.7 | 4.3 | 0.00 | 0.00 | 0.00 | 65 | 1015.3 |
| 20260505210015 | 69 | 283 | 0.9 | 4.3 | 0.00 | 0.00 | 0.00 | 65 | 1015.7 |
| 20260505204512 | 69 | 129 | 0.9 | 7.0 | 0.00 | 0.00 | 0.00 | 67 | 1015.8 |
| 20260505204009 | 68 | 230 | 3.5 | 7.0 | 0.00 | 0.00 | 0.00 | 67 | 1015.4 |
| 20260505203510 | 68 | 217 | 0.9 | 6.1 | 0.00 | 0.00 | 0.00 | 67 | 1015.5 |
| 20260505203028 | 68 | 281 | 2.6 | 6.1 | 0.00 | 0.00 | 0.00 | 67 | 1015.5 |
| 20260505203012 | 67 | 276 | 2.6 | 6.1 | 0.00 | 0.00 | 0.00 | 67 | 1016.0 |
| 20260505202512 | 68 | 269 | 0.9 | 4.3 | 0.00 | 0.00 | 0.00 | 67 | 1015.5 |
| 20260505201510 | 68 | 172 | 1.7 | 6.1 | 0.00 | 0.00 | 0.00 | 68 | 1016.0 |
| 20260505201007 | 67 | 282 | 1.7 | 7.0 | 0.00 | 0.00 | 0.00 | 69 | 1015.5 |
| 20260505200503 | 66 | 226 | 0.9 | 7.0 | 0.00 | 0.00 | 0.00 | 71 | 1015.6 |
| 20260505200010 | 66 | 270 | 1.7 | 9.6 | 0.00 | 0.00 | 0.00 | 71 | 1016.1 |
| 20260505200003 | 66 | 278 | 2.6 | 9.6 | 0.00 | 0.00 | 0.00 | 71 | 1015.6 |
| 20260505195505 | 65 | 191 | 3.5 | 9.6 | 0.00 | 0.00 | 0.00 | 71 | 1015.6 |
| 20260505195004 | 65 | 293 | 1.7 | 6.1 | 0.00 | 0.00 | 0.00 | 72 | 1015.6 |
| 20260505194510 | 65 | 283 | 2.6 | 6.1 | 0.00 | 0.00 | 0.00 | 73 | 1016.2 |
| 20260505194506 | 65 | 284 | 2.6 | 6.1 | 0.00 | 0.00 | 0.00 | 72 | 1015.7 |
| 20260505194004 | 65 | 287 | 2.6 | 7.0 | 0.00 | 0.00 | 0.00 | 72 | 1015.7 |
| 20260505193504 | 65 | 288 | 3.5 | 7.0 | 0.00 | 0.00 | 0.00 | 72 | 1015.7 |
| 20260505193014 | 65 | 279 | 2.6 | 7.8 | 0.00 | 0.00 | 0.00 | 73 | 1015.7 |
| 20260505193009 | 65 | 279 | 1.7 | 7.8 | 0.00 | 0.00 | 0.00 | 74 | 1016.2 |
| 20260505192507 | 64 | 141 | 5.2 | 7.8 | 0.00 | 0.00 | 0.00 | 73 | 1015.6 |
| 20260505192008 | 65 | 281 | 2.6 | 9.6 | 0.00 | 0.00 | 0.00 | 71 | 1015.6 |
| 20260505191516 | 65 | 214 | 6.1 | 9.6 | 0.00 | 0.00 | 0.00 | 71 | 1015.6 |
| 20260505191507 | 65 | 221 | 5.2 | 9.6 | 0.00 | 0.00 | 0.00 | 71 | 1016.2 |
| 20260505191008 | 65 | 158 | 1.7 | 8.7 | 0.00 | 0.00 | 0.00 | 71 | 1015.6 |
| 20260505190508 | 66 | 232 | 3.5 | 6.1 | 0.00 | 0.00 | 0.00 | 69 | 1015.6 |
| 20260505190019 | 66 | 210 | 4.3 | 6.1 | 0.00 | 0.00 | 0.00 | 69 | 1015.6 |
| 20260505190012 | 66 | 243 | 3.5 | 6.1 | 0.00 | 0.00 | 0.00 | 70 | 1016.1 |
| 20260505185514 | 67 | 263 | 2.6 | 6.1 | 0.00 | 0.00 | 0.00 | 68 | 1015.6 |
| 20260505184504 | 67 | 222 | 0.0 | 5.2 | 0.00 | 0.00 | 0.00 | 70 | 1016.1 |
| 20260505183010 | 65 | 167 | 3.5 | 7.0 | 0.00 | 0.00 | 0.00 | 71 | 1015.6 |
| 20260505183004 | 65 | 167 | 2.6 | 7.0 | 0.00 | 0.00 | 0.00 | 72 | 1016.2 |
| 20260505182006 | 64 | 259 | 1.7 | 4.3 | 0.00 | 0.00 | 0.00 | 72 | 1015.5 |
| 20260505181501 | 65 | 195 | 0.9 | 4.3 | 0.00 | 0.00 | 0.00 | 72 | 1016.1 |
| 20260505180109 | 64 | 222 | 1.7 | 5.2 | 0.00 | 0.00 | 0.00 | 75 | 1016.1 |
| 20260505180018 | 64 | 150 | 2.6 | 4.3 | 0.00 | 0.00 | 0.00 | 74 | 1015.5 |
| 20260505175508 | 63 | 214 | 0.0 | 4.3 | 0.00 | 0.00 | 0.00 | 75 | 1015.5 |
| 20260505175008 | 63 | 217 | 2.6 | 6.1 | 0.00 | 0.00 | 0.00 | 75 | 1015.6 |
| 20260505174557 | 63 | 167 | 1.7 | 6.1 | 0.00 | 0.00 | 0.00 | 76 | 1016.2 |
| 20260505174521 | 63 | 231 | 1.7 | 6.1 | 0.00 | 0.00 | 0.00 | 75 | 1015.6 |
| 20260505174009 | 63 | 232 | 1.7 | 6.1 | 0.00 | 0.00 | 0.00 | 75 | 1015.6 |
| 20260505173056 | 63 | 169 | 2.6 | 6.1 | 0.00 | 0.00 | 0.00 | 75 | 1016.2 |
| 20260505171558 | 63 | 149 | 0.9 | 5.2 | 0.00 | 0.00 | 0.00 | 77 | 1016.2 |
| 20260505171511 | 63 | 191 | 0.9 | 5.2 | 0.00 | 0.00 | 0.00 | 77 | 1015.5 |
| 20260505170056 | 62 | 191 | 0.0 | 5.2 | 0.00 | 0.00 | 0.00 | 77 | 1016.2 |
| 20260505165006 | 62 | 207 | 0.9 | 5.2 | 0.00 | 0.00 | 0.00 | 75 | 1015.6 |
| 20260505164554 | 63 | 184 | 2.6 | 5.2 | 0.00 | 0.00 | 0.00 | 76 | 1016.2 |
| 20260505164522 | 63 | 179 | 1.7 | 5.2 | 0.00 | 0.00 | 0.00 | 75 | 1015.5 |
| 20260505164010 | 62 | 269 | 1.7 | 5.2 | 0.00 | 0.00 | 0.00 | 75 | 1015.6 |
| 20260505163510 | 63 | 233 | 1.7 | 4.3 | 0.00 | 0.00 | 0.00 | 76 | 1015.5 |
| 20260505163051 | 63 | 146 | 0.0 | 3.5 | 0.00 | 0.00 | 0.00 | 77 | 1016.0 |
| 20260505163024 | 63 | 207 | 0.9 | 4.3 | 0.00 | 0.00 | 0.00 | 76 | 1015.5 |
| 20260505162509 | 62 | 215 | 0.0 | 4.3 | 0.00 | 0.00 | 0.00 | 77 | 1015.4 |
| 20260505162007 | 62 | 163 | 1.7 | 3.5 | 0.00 | 0.00 | 0.00 | 78 | 1015.5 |
| 20260505161551 | 61 | 135 | 0.9 | 3.5 | 0.00 | 0.00 | 0.00 | 78 | 1016.1 |
| 20260505161509 | 61 | 161 | 1.7 | 3.5 | 0.00 | 0.00 | 0.00 | 77 | 1015.5 |
| 20260505153049 | 59 | 174 | 1.7 | 4.3 | 0.00 | 0.00 | 0.00 | 82 | 1016.0 |
| 20260505153019 | 59 | 195 | 2.6 | 4.3 | 0.00 | 0.00 | 0.00 | 82 | 1015.4 |
| 20260505152510 | 58 | 106 | 0.9 | 4.3 | 0.00 | 0.00 | 0.00 | 83 | 1015.4 |
| 20260505152013 | 58 | 162 | 0.9 | 3.5 | 0.00 | 0.00 | 0.00 | 83 | 1015.4 |
| 20260505151545 | 58 | 162 | 0.9 | 3.5 | 0.00 | 0.00 | 0.00 | 83 | 1016.1 |
| 20260505151525 | 58 | 160 | 1.7 | 4.3 | 0.00 | 0.00 | 0.00 | 83 | 1015.4 |
| 20260505151009 | 58 | 130 | 0.9 | 4.3 | 0.00 | 0.00 | 0.00 | 83 | 1015.4 |
| 20260505150511 | 58 | 233 | 0.9 | 4.3 | 0.00 | 0.00 | 0.00 | 83 | 1015.3 |
| 20260505140510 | 54 | 153 | 0.0 | 0.0 | 0.00 | 0.00 | 0.00 | 89 | 1014.7 |
| 20260505125010 | 50 | 38 | 0.0 | 0.9 | 0.00 | 0.00 | 0.00 | 93 | 1013.9 |
| 20260505124538 | 50 | 38 | 0.0 | 0.9 | 0.00 | 0.00 | 0.00 | 93 | 1013.8 |
| 20260505124521 | 50 | 38 | 0.0 | 0.9 | 0.00 | 0.00 | 0.00 | 94 | 1014.3 |
| 20260505124012 | 50 | 38 | 0.0 | 0.0 | 0.00 | 0.00 | 0.00 | 93 | 1013.7 |
| 20260505123508 | 50 | 38 | 0.0 | 0.9 | 0.00 | 0.00 | 0.00 | 93 | 1013.7 |
| 20260505123021 | 50 | 38 | 0.0 | 0.9 | 0.00 | 0.00 | 0.00 | 93 | 1014.2 |
| 20260505123011 | 50 | 38 | 0.0 | 0.9 | 0.00 | 0.00 | 0.00 | 93 | 1013.6 |
| 20260505122504 | 50 | 38 | 0.0 | 0.9 | 0.00 | 0.00 | 0.00 | 92 | 1013.6 |
| 20260505122012 | 50 | 38 | 0.0 | 0.9 | 0.00 | 0.00 | 0.00 | 92 | 1013.6 |
| 20260505121530 | 50 | 38 | 0.0 | 0.9 | 0.00 | 0.00 | 0.00 | 92 | 1013.5 |
| 20260505121517 | 50 | 38 | 0.0 | 0.9 | 0.00 | 0.00 | 0.00 | 93 | 1014.1 |
| 20260505120508 | 51 | 38 | 0.0 | 0.9 | 0.00 | 0.00 | 0.00 | 92 | 1013.4 |
| 20260505120023 | 51 | 38 | 0.0 | 0.9 | 0.00 | 0.00 | 0.00 | 92 | 1013.3 |
| 20260505120016 | 51 | 38 | 0.0 | 0.9 | 0.00 | 0.00 | 0.00 | 93 | 1013.9 |
| 20260505115508 | 51 | 38 | 0.0 | 0.9 | 0.00 | 0.00 | 0.00 | 92 | 1013.2 |
| 20260505115009 | 51 | 38 | 0.0 | 0.0 | 0.00 | 0.00 | 0.00 | 92 | 1013.2 |
| 20260505114523 | 51 | 38 | 0.0 | 0.0 | 0.00 | 0.00 | 0.00 | 91 | 1013.2 |
| 20260505114513 | 51 | 38 | 0.0 | 0.0 | 0.00 | 0.00 | 0.00 | 91 | 1013.7 |
| 20260505114008 | 51 | 38 | 0.0 | 0.0 | 0.00 | 0.00 | 0.00 | 90 | 1013.1 |
| 20260505113511 | 51 | 38 | 0.0 | 0.0 | 0.00 | 0.00 | 0.00 | 90 | 1013.1 |
| 20260505113026 | 51 | 38 | 0.0 | 0.9 | 0.00 | 0.00 | 0.00 | 89 | 1013.0 |
| 20260505113008 | 51 | 38 | 0.0 | 0.9 | 0.00 | 0.00 | 0.00 | 90 | 1013.4 |
| 20260505112510 | 52 | 38 | 0.0 | 0.9 | 0.00 | 0.00 | 0.00 | 89 | 1013.0 |
| 20260505111516 | 53 | 38 | 0.0 | 0.9 | 0.00 | 0.00 | 0.00 | 88 | 1012.8 |
| 20260505111008 | 53 | 38 | 0.0 | 1.7 | 0.00 | 0.00 | 0.00 | 87 | 1012.6 |
| 20260505110508 | 53 | 38 | 0.0 | 1.7 | 0.00 | 0.00 | 0.00 | 87 | 1012.5 |
| 20260505102007 | 54 | 50 | 0.0 | 0.9 | 0.00 | 0.00 | 0.00 | 87 | 1012.4 |
| 20260505101604 | 53 | 50 | 0.0 | 0.9 | 0.00 | 0.00 | 0.00 | 88 | 1012.8 |
| 20260505101517 | 53 | 50 | 0.0 | 1.7 | 0.00 | 0.00 | 0.00 | 87 | 1012.3 |
| 20260505101007 | 53 | 51 | 0.0 | 1.7 | 0.00 | 0.00 | 0.00 | 88 | 1012.3 |
| 20260505100507 | 53 | 46 | 0.9 | 1.7 | 0.00 | 0.00 | 0.00 | 87 | 1012.2 |
| 20260505100057 | 54 | 52 | 0.0 | 1.7 | 0.00 | 0.00 | 0.00 | 88 | 1012.7 |
| 20260505100032 | 54 | 52 | 0.9 | 1.7 | 0.00 | 0.00 | 0.00 | 87 | 1012.2 |
| 20260505095506 | 54 | 52 | 0.9 | 1.7 | 0.00 | 0.00 | 0.00 | 87 | 1012.2 |
| 20260505095010 | 54 | 91 | 0.0 | 0.0 | 0.00 | 0.00 | 0.00 | 86 | 1012.2 |
| 20260505094600 | 54 | 179 | 0.0 | 0.0 | 0.00 | 0.00 | 0.00 | 85 | 1012.5 |
| 20260505094524 | 54 | 179 | 0.0 | 0.0 | 0.00 | 0.00 | 0.00 | 85 | 1012.1 |
| 20260505094003 | 55 | 179 | 0.0 | 0.0 | 0.00 | 0.00 | 0.00 | 85 | 1012.0 |
| 20260505093503 | 55 | 179 | 0.0 | 0.0 | 0.00 | 0.00 | 0.00 | 84 | 1012.0 |
| 20260505093055 | 55 | 179 | 0.0 | 0.0 | 0.00 | 0.00 | 0.00 | 83 | 1012.4 |
| 20260505093022 | 55 | 179 | 0.0 | 1.7 | 0.00 | 0.00 | 0.00 | 83 | 1012.0 |
| 20260505092503 | 56 | 179 | 0.0 | 1.7 | 0.00 | 0.00 | 0.00 | 83 | 1012.0 |
| 20260505092007 | 55 | 191 | 0.0 | 1.7 | 0.00 | 0.00 | 0.00 | 82 | 1011.9 |
| 20260505091550 | 55 | 135 | 0.0 | 0.9 | 0.00 | 0.00 | 0.00 | 83 | 1012.3 |
| 20260505091516 | 55 | 135 | 0.0 | 0.9 | 0.00 | 0.00 | 0.00 | 83 | 1011.9 |
| 20260505091004 | 55 | 135 | 0.0 | 0.9 | 0.00 | 0.00 | 0.00 | 83 | 1011.8 |
| 20260505090507 | 55 | 135 | 0.0 | 0.9 | 0.00 | 0.00 | 0.00 | 84 | 1011.8 |
| 20260505090055 | 55 | 135 | 0.0 | 0.9 | 0.00 | 0.00 | 0.00 | 85 | 1012.1 |
| 20260505090015 | 55 | 135 | 0.0 | 0.9 | 0.00 | 0.00 | 0.00 | 84 | 1011.8 |
| 20260505085507 | 55 | 129 | 0.0 | 0.9 | 0.00 | 0.00 | 0.00 | 85 | 1011.6 |
| 20260505085013 | 55 | 117 | 0.0 | 0.9 | 0.00 | 0.00 | 0.00 | 87 | 1011.5 |
| 20260505084545 | 55 | 136 | 0.0 | 0.0 | 0.00 | 0.00 | 0.00 | 87 | 1011.8 |
| 20260505084524 | 55 | 136 | 0.0 | 0.0 | 0.00 | 0.00 | 0.00 | 87 | 1011.4 |
| 20260505084008 | 55 | 56 | 0.0 | 0.0 | 0.00 | 0.00 | 0.00 | 87 | 1011.4 |
| 20260505083514 | 55 | 56 | 0.0 | 0.0 | 0.00 | 0.00 | 0.00 | 87 | 1011.4 |
| 20260505083100 | 55 | 56 | 0.0 | 0.0 | 0.00 | 0.00 | 0.00 | 86 | 1011.7 |
| 20260505083034 | 55 | 56 | 0.0 | 0.0 | 0.00 | 0.00 | 0.00 | 86 | 1011.4 |
| 20260505082510 | 56 | 56 | 0.0 | 0.0 | 0.00 | 0.00 | 0.00 | 85 | 1011.2 |
| 20260505082004 | 56 | 56 | 0.0 | 0.0 | 0.00 | 0.00 | 0.00 | 85 | 1011.2 |
| 20260505081541 | 56 | 56 | 0.0 | 0.0 | 0.00 | 0.00 | 0.00 | 86 | 1011.4 |
| 20260505081514 | 56 | 56 | 0.0 | 0.0 | 0.00 | 0.00 | 0.00 | 85 | 1011.2 |